Tracking 19146 objects as of 24-Apr-2018
HD Live streaming from Space Station
objects crossing your sky now

SL-8 R/B

Track SL-8 R/B now!
10-day predictions


NORAD ID: 25592
Int'l Code: 1998-076B
Perigee: 972.2 km
Apogee: 1,011.7 km
Inclination: 82.9 °
Period: 104.8 minutes
Semi major axis: 7362 km
RCS: 5.138 m2 (large)
Launch date: December 24, 1998
Source: Commonwealth of Independent States (former USSR) (CIS)
Launch site: PLESETSK MISSILE AND SPACE COMPLEX (PKMTR)

Note: This is a ROCKET BODY
aabbcc
Your satellite tracking list
Your tracking list is empty




NASA's NSSDC Master Catalog

Two Line Element Set (TLE):
1 25592U 98076B   18113.91084087 +.00000071 +00000-0 +59346-4 0  9993
2 25592 082.9352 236.7560 0026773 058.5149 059.5334 13.74120158969083
Source of the keplerian elements: AFSPC